Temp
19 18 18 17 19 19 22 23 25 24 23 23 24 23 21 20 21 20 21 21 20 20 20 19 19 19 19 20 20 20 19 19 19 19 19 19 18 18 18 18 18 18 18 18 18 17 17 18 18
19 18 17 18 19 20 22 24 22 23 22 23 23 23 21 20 20 20 19 19 20 20 20 20 19 19 20 19 19 19 19 19 19 19 18 18 18 18 18 18 17 17 18 18 18 17 17 18 18
19 18 18 19 20 21 22 24 23 24 24 24 24 23 22 20 21 21 21 20 20 20 20 20 20 20 20 19 19 19 19 19 19 19 19 18 18 18 18 18 18 17 18 18 18 18 18 17 17
19 18 19 21 23 25 24 24 24 25 24 24 24 22 22 21 22 21 21 21 20 20 20 20 20 20 20 19 19 19 19 18 18 19 19 19 18 18 18 18 17 18 18 18 18 18 18 17 17
18 20 20 23 24 26 25 25 25 24 24 24 23 22 21 21 22 22 22 21 21 21 21 20 20 20 20 19 19 19 19 18 18 18 18 19 19 18 18 18 18 18 18 18 17 18 18 18 17
20 21 21 22 24 26 26 25 25 24 24 23 22 22 20 22 23 22 22 22 22 21 21 21 20 20 20 20 19 19 18 18 18 18 18 19 19 18 18 18 18 18 18 18 18 17 18 18 18
22 21 24 25 26 26 26 26 24 24 24 24 23 21 20 21 22 22 22 22 21 21 21 21 20 20 20 20 20 19 19 19 18 18 18 18 19 19 18 18 18 18 18 18 18 18 18 18 18
25 23 26 26 26 26 26 27 25 24 24 24 24 21 19 20 22 21 21 21 21 21 21 21 21 21 20 20 20 20 19 19 19 19 19 18 18 18 18 18 18 18 18 18 18 18 18 18 18
26 23 24 27 28 26 27 26 25 25 24 24 24 23 23 22 21 21 20 20 20 21 21 20 21 20 20 20 20 20 20 19 19 19 19 19 18 19 19 18 18 17 18 18 18 18 18 18 18
25 22 26 28 26 26 28 28 26 25 24 23 23 23 22 22 21 21 21 21 21 21 21 21 20 20 20 20 20 20 20 20 19 19 19 19 18 18 18 18 18 18 18 18 18 18 17 18 17
25 25 26 28 29 29 28 27 26 24 23 24 23 23 22 22 21 21 21 22 23 22 21 21 20 20 20 20 20 20 19 19 19 18 18 18 18 18 17 18 18 18 18 18 18 18 18 18 18
26 27 29 29 29 29 27 27 26 26 26 26 25 24 23 22 21 22 22 22 22 22 21 21 20 20 20 20 20 19 19 19 19 18 18 18 18 18 18 18 18 17 18 18 19 18 18 18 18
27 28 29 29 29 29 29 27 26 26 27 26 24 23 23 22 22 22 23 23 22 22 22 21 21 21 20 20 19 19 19 18 17 17 17 17 18 18 18 18 17 18 18 18 18 18 18 18 18
30 29 29 30 27 28 26 26 26 27 26 24 24 23 23 23 23 23 22 23 23 22 22 21 21 21 21 20 20 19 19 18 18 17 17 17 17 18 18 18 18 18 17 18 18 18 17 18 18
30 27 26 26 26 25 27 26 25 26 25 24 24 24 24 24 23 23 24 23 23 23 22 22 21 21 20 20 19 19 19 18 18 17 17 17 17 17 17 17 17 18 18 18 18 18 17 18 18
26 25 25 27 27 26 27 24 25 25 25 24 24 24 24 24 24 24 24 24 24 23 23 22 22 21 20 20 19 19 19 18 17 16 16 17 17 17 17 17 17 17 18 18 18 17 17 18 17
23 24 25 27 27 26 26 25 26 25 25 24 24 24 24 24 24 24 24 25 25 24 23 22 22 21 20 20 20 19 19 19 17 17 16 16 16 16 17 17 17 18 18 18 18 18 17 18 17
25 25 26 26 27 27 25 24 23 25 25 24 24 25 24 25 25 25 25 25 25 24 23 22 22 21 20 20 20 20 20 19 18 17 17 16 16 17 17 17 17 18 18 18 17 18 18 18 18
26 25 25 27 28 27 25 26 25 25 24 24 24 24 25 25 26 25 25 25 25 24 23 23 22 21 21 21 20 19 20 19 18 18 17 17 17 17 17 17 17 18 18 18 18 18 18 18 18
25 25 25 26 28 27 26 27 26 24 25 25 24 24 26 26 26 26 25 25 25 24 23 23 22 21 22 21 20 19 20 19 19 18 18 18 18 17 17 17 17 17 17 17 17 18 18 18 17
25 25 25 26 28 29 28 26 25 24 25 25 25 25 25 27 26 26 25 25 24 24 24 23 22 22 22 21 20 20 20 19 19 18 18 18 17 17 17 17 17 17 17 17 17 17 17 18 18
24 25 28 27 27 24 27 24 23 24 23 23 24 25 26 26 26 27 26 25 25 24 24 23 22 20 22 21 21 20 20 19 19 18 18 17 18 17 17 17 17 17 16 17 17 17 17 17 17
26 26 26 27 25 24 25 23 23 22 24 22 24 25 25 27 27 27 27 25 25 24 24 23 23 22 22 21 20 19 20 19 18 18 18 18 17 17 17 17 17 17 16 16 16 17 17 17 17
28 27 21 19 19 21 23 23 22 22 23 24 25 26 26 26 27 26 26 25 25 24 23 22 19 21 21 21 21 19 19 18 18 17 17 17 17 17 17 16 17 17 16 16 16 15 16 16 16
25 21 21 22 21 21 21 22 22 24 23 24 25 26 28 26 26 25 25 25 25 24 23 23 22 21 22 21 20 19 19 18 18 18 17 17 17 17 17 16 16 16 16 16 16 16 16 16 16
27 22 20 24 21 22 22 24 25 24 23 25 26 26 24 24 23 22 21 21 25 25 24 23 22 21 22 21 19 19 18 18 18 17 17 16 17 17 16 15 15 16 16 15 14 14 15 15 16
26 24 22 19 18 21 21 23 24 23 20 20 19 21 21 22 22 21 20 18 20 24 24 23 22 22 21 20 19 18 18 18 17 16 16 16 16 16 15 15 14 15 13 14 14 14 15 15 16
26 23 23 18 23 23 21 22 22 23 20 19 18 18 21 22 24 26 20 22 20 23 24 23 22 21 21 19 18 17 17 18 16 15 16 16 16 15 14 14 14 15 14 13 14 15 15 15 15
24 24 19 18 18 20 21 21 18 19 20 19 18 20 22 23 24 21 20 23 21 20 23 23 22 21 21 19 18 17 17 18 17 16 16 16 15 14 14 14 14 15 15 14 14 14 14 14 15
25 24 21 20 22 17 18 21 18 16 17 19 18 21 21 23 24 21 21 21 20 20 23 23 22 21 20 19 17 17 17 18 17 17 16 15 15 15 15 15 15 15 15 15 15 16 15 14 15
Height
1515 1518 1520 1522 1527 1525 1525 1518 1507 1510 1510 1510 1511 1513 1516 1518 1518 1530 1521 1524 1527 1529 1533 1535 1537 1538 1540 1542 1543 1545 1546 1547 1548 1550 1551 1553 1554 1554 1554 1554 1555 1555 1555 1556 1556 1557 1558 1557 1558
1515 1518 1521 1522 1530 1537 1531 1514 1514 1511 1511 1512 1513 1515 1516 1520 1518 1519 1523 1526 1529 1531 1533 1536 1538 1539 1541 1542 1544 1546 1547 1548 1549 1551 1552 1553 1555 1555 1555 1555 1556 1556 1556 1557 1558 1558 1559 1559 1560
1518 1520 1522 1520 1528 1537 1531 1516 1513 1514 1513 1512 1515 1517 1519 1521 1520 1522 1525 1528 1531 1533 1535 1537 1538 1539 1541 1543 1545 1547 1548 1548 1550 1551 1553 1554 1555 1555 1556 1556 1556 1556 1557 1558 1559 1560 1561 1561 1562
1520 1522 1521 1525 1526 1516 1516 1515 1514 1515 1517 1516 1517 1519 1523 1524 1524 1526 1527 1529 1533 1535 1536 1537 1538 1540 1541 1543 1545 1547 1548 1549 1550 1551 1553 1554 1555 1556 1556 1557 1558 1557 1558 1559 1560 1561 1562 1563 1564
1520 1520 1522 1524 1522 1515 1515 1515 1515 1515 1517 1517 1517 1524 1527 1527 1527 1528 1530 1532 1533 1535 1537 1538 1539 1540 1542 1543 1545 1546 1548 1549 1550 1551 1553 1554 1555 1556 1557 1557 1558 1558 1559 1559 1561 1562 1563 1564 1566
1519 1519 1529 1536 1526 1517 1517 1516 1515 1517 1519 1520 1522 1524 1529 1528 1529 1530 1532 1534 1536 1537 1538 1539 1540 1541 1542 1544 1545 1547 1548 1549 1549 1551 1552 1554 1555 1555 1556 1557 1558 1558 1559 1560 1561 1563 1563 1564 1565
1519 1519 1527 1525 1524 1520 1517 1518 1518 1519 1521 1522 1521 1525 1529 1529 1530 1532 1534 1536 1537 1539 1540 1541 1541 1541 1542 1544 1545 1547 1548 1549 1550 1550 1551 1552 1553 1555 1555 1557 1558 1558 1559 1559 1561 1562 1563 1564 1565
1518 1518 1522 1522 1527 1528 1520 1519 1521 1519 1522 1523 1522 1524 1530 1529 1530 1533 1536 1538 1539 1540 1541 1541 1542 1543 1543 1544 1545 1547 1548 1549 1550 1550 1551 1552 1552 1554 1555 1556 1557 1558 1558 1559 1559 1561 1562 1564 1565
1516 1525 1529 1523 1523 1523 1512 1515 1520 1519 1520 1522 1523 1521 1525 1530 1531 1534 1537 1538 1539 1539 1540 1541 1542 1543 1543 1544 1545 1545 1547 1548 1549 1550 1550 1550 1552 1553 1554 1555 1556 1557 1558 1559 1559 1560 1561 1563 1564
1515 1529 1521 1515 1514 1509 1506 1510 1513 1516 1520 1522 1522 1523 1526 1529 1531 1533 1534 1536 1538 1538 1539 1541 1542 1543 1544 1544 1545 1545 1546 1546 1547 1548 1549 1550 1551 1551 1552 1554 1556 1557 1558 1558 1559 1559 1560 1562 1563
1513 1521 1512 1512 1511 1506 1508 1513 1512 1513 1518 1513 1518 1522 1525 1529 1531 1532 1535 1536 1537 1538 1539 1540 1541 1542 1543 1543 1544 1545 1544 1545 1545 1546 1547 1548 1549 1550 1552 1553 1554 1556 1557 1557 1558 1558 1559 1561 1561
1513 1511 1513 1509 1504 1504 1507 1510 1513 1509 1509 1513 1515 1517 1524 1528 1531 1532 1534 1536 1537 1538 1539 1541 1541 1542 1543 1543 1543 1544 1544 1543 1543 1545 1545 1546 1547 1549 1550 1551 1553 1555 1556 1557 1557 1558 1559 1559 1559
1507 1505 1508 1506 1504 1502 1505 1507 1513 1511 1510 1513 1519 1521 1523 1527 1530 1532 1533 1534 1535 1536 1538 1539 1541 1541 1542 1542 1544 1543 1542 1542 1542 1542 1543 1544 1546 1547 1548 1549 1551 1553 1555 1555 1556 1556 1557 1557 1558
1501 1498 1499 1499 1500 1502 1506 1509 1511 1508 1511 1515 1520 1522 1522 1523 1524 1528 1530 1531 1532 1533 1536 1538 1539 1540 1542 1542 1542 1541 1541 1539 1538 1537 1539 1540 1542 1545 1545 1547 1550 1551 1553 1553 1554 1554 1554 1555 1556
1498 1504 1499 1496 1501 1504 1506 1511 1507 1508 1509 1512 1516 1520 1523 1522 1523 1524 1524 1527 1529 1531 1534 1537 1538 1540 1542 1543 1541 1541 1539 1537 1533 1532 1531 1535 1538 1541 1543 1545 1547 1549 1550 1551 1551 1551 1551 1552 1553
1505 1508 1517 1504 1502 1505 1507 1521 1501 1507 1507 1508 1512 1517 1517 1517 1517 1519 1522 1524 1527 1530 1532 1535 1536 1538 1540 1541 1541 1539 1537 1532 1529 1525 1528 1531 1535 1537 1540 1543 1544 1546 1547 1547 1547 1547 1548 1548 1547
1516 1528 1519 1510 1500 1504 1510 1513 1500 1507 1506 1508 1509 1509 1511 1516 1518 1518 1519 1521 1524 1527 1530 1533 1534 1535 1537 1539 1539 1538 1535 1531 1528 1527 1526 1529 1532 1536 1539 1541 1542 1543 1543 1544 1543 1543 1544 1544 1545
1527 1522 1514 1515 1501 1501 1506 1507 1502 1502 1504 1504 1506 1505 1506 1511 1513 1513 1516 1518 1521 1524 1528 1532 1535 1537 1536 1535 1537 1536 1534 1532 1530 1528 1528 1529 1531 1534 1536 1537 1539 1540 1541 1541 1540 1540 1540 1541 1543
1512 1517 1516 1498 1494 1501 1504 1501 1499 1495 1502 1502 1501 1502 1502 1504 1509 1513 1514 1515 1518 1522 1525 1529 1533 1534 1534 1535 1535 1535 1534 1532 1531 1530 1529 1529 1530 1532 1534 1536 1537 1537 1538 1537 1537 1537 1537 1539 1539
1512 1516 1512 1498 1491 1499 1498 1494 1492 1494 1490 1488 1489 1493 1499 1501 1506 1510 1512 1513 1516 1521 1524 1525 1528 1530 1531 1531 1532 1532 1533 1533 1531 1531 1530 1530 1530 1532 1533 1534 1535 1535 1535 1535 1535 1534 1536 1536 1537
1510 1513 1508 1505 1490 1487 1489 1497 1492 1492 1491 1490 1492 1490 1497 1497 1502 1505 1509 1512 1516 1521 1523 1523 1528 1530 1532 1531 1529 1530 1530 1531 1531 1531 1532 1531 1531 1532 1533 1534 1534 1534 1533 1532 1532 1532 1532 1533 1534
1517 1495 1492 1496 1502 1522 1493 1531 1501 1489 1489 1486 1486 1487 1491 1494 1502 1504 1507 1511 1515 1518 1520 1518 1518 1524 1528 1529 1529 1527 1528 1528 1530 1531 1532 1531 1531 1532 1532 1533 1532 1531 1530 1530 1529 1529 1529 1530 1531
1498 1486 1489 1492 1505 1511 1508 1526 1506 1493 1490 1484 1480 1482 1487 1494 1498 1500 1504 1508 1512 1515 1508 1502 1508 1509 1522 1523 1524 1524 1525 1527 1528 1529 1530 1531 1532 1532 1532 1531 1530 1529 1528 1527 1526 1526 1527 1527 1528
1480 1488 1501 1508 1521 1541 1514 1520 1515 1501 1487 1476 1475 1476 1484 1489 1494 1499 1504 1509 1512 1512 1498 1495 1491 1506 1524 1522 1520 1521 1522 1523 1526 1527 1528 1530 1531 1531 1531 1530 1529 1527 1525 1525 1525 1525 1525 1525 1526
1488 1506 1539 1540 1547 1546 1516 1523 1508 1484 1479 1474 1471 1473 1479 1485 1491 1498 1502 1503 1509 1511 1508 1508 1500 1512 1523 1523 1519 1518 1520 1520 1524 1526 1526 1529 1530 1530 1530 1528 1527 1525 1524 1524 1524 1524 1524 1524 1524
1488 1500 1534 1542 1548 1534 1511 1517 1497 1482 1477 1471 1472 1476 1480 1488 1494 1503 1505 1515 1509 1510 1513 1514 1515 1518 1520 1519 1517 1517 1519 1521 1522 1522 1524 1527 1528 1528 1528 1526 1525 1524 1524 1524 1524 1523 1523 1522 1522
1488 1501 1495 1527 1534 1534 1523 1503 1485 1478 1480 1474 1475 1473 1479 1481 1486 1495 1507 1517 1518 1512 1509 1514 1515 1515 1514 1517 1517 1518 1519 1521 1520 1518 1521 1523 1525 1526 1526 1525 1525 1524 1524 1524 1524 1523 1521 1521 1520
1477 1481 1509 1523 1535 1537 1528 1516 1510 1490 1488 1485 1481 1477 1481 1484 1491 1489 1504 1511 1515 1511 1507 1510 1513 1514 1512 1517 1519 1520 1520 1518 1515 1518 1520 1522 1523 1524 1525 1525 1526 1524 1524 1523 1523 1522 1521 1520 1520
1485 1490 1499 1509 1520 1536 1540 1524 1498 1490 1484 1485 1487 1481 1481 1489 1490 1495 1495 1490 1505 1505 1504 1509 1513 1514 1512 1515 1520 1522 1520 1519 1517 1519 1521 1519 1521 1523 1524 1526 1526 1524 1525 1524 1524 1522 1522 1521 1521
1472 1479 1488 1516 1516 1525 1525 1516 1492 1488 1483 1482 1489 1488 1489 1488 1488 1486 1489 1485 1490 1509 1505 1509 1513 1512 1512 1513 1519 1523 1522 1520 1521 1521 1521 1521 1522 1523 1523 1524 1525 1525 1525 1525 1524 1522 1522 1523 1522
Wind_Speed
16 15 9 2 1 2 4 5 2 4 3 2 6 4 5 7 1 2 16 18 22 21 19 18 16 15 15 15 15 16 15 15 14 13 14 13 11 11 10 10 11 11 10 10 11 10 10 10 11
17 18 11 2 2 4 3 2 9 4 5 11 13 10 7 3 5 15 23 13 21 20 19 18 17 15 14 14 14 15 14 14 12 12 13 11 10 10 11 10 10 11 10 8 9 10 10 11 13
15 15 4 3 1 2 3 2 10 8 12 10 4 9 4 4 13 20 11 22 22 19 17 17 17 16 14 13 13 13 13 12 11 10 11 11 11 12 10 9 9 9 9 8 8 9 10 13 15
10 5 4 2 3 2 5 6 9 9 15 13 13 5 8 4 10 11 20 21 19 18 17 16 16 15 13 13 13 13 12 12 11 10 9 9 9 9 7 6 6 7 9 8 9 9 11 13 16
6 4 3 4 4 4 5 13 15 7 6 12 12 5 6 6 11 15 18 18 16 16 16 16 15 14 13 13 13 12 12 11 12 11 10 8 8 7 6 5 6 7 6 7 8 11 11 13 15
3 1 5 4 6 6 4 15 12 11 15 17 12 9 1 12 14 20 18 17 16 15 15 14 14 13 12 12 12 12 11 11 10 10 10 10 10 8 6 6 6 6 6 6 7 9 12 13 13
4 3 2 2 4 4 4 13 9 13 13 6 17 5 10 23 16 21 19 17 15 15 14 13 12 12 12 11 11 11 11 10 9 9 8 8 9 8 7 5 5 5 5 5 5 7 10 12 13
3 3 3 2 3 5 4 3 10 13 3 17 20 6 8 24 19 21 16 14 13 12 11 11 11 11 11 10 10 10 10 10 9 8 8 8 7 8 7 6 7 7 5 5 5 5 7 11 12
2 4 2 4 4 3 15 7 14 5 18 8 9 13 20 25 22 21 19 16 15 12 12 12 10 10 9 8 9 9 9 9 9 9 8 9 8 7 7 7 8 7 6 6 5 5 6 8 11
4 3 3 3 8 7 12 11 16 8 13 1 10 19 22 25 24 24 21 18 15 13 11 9 8 8 9 9 9 9 10 10 10 10 10 10 10 11 8 8 7 5 5 6 6 6 6 7 9
5 6 4 12 17 13 7 6 5 17 4 16 28 26 26 26 28 25 22 12 8 10 10 8 8 7 7 9 9 7 9 11 12 12 12 11 12 13 9 8 8 7 6 6 7 6 5 6 8
3 9 11 12 27 23 7 7 6 18 9 23 27 29 28 29 30 26 21 15 13 12 9 9 8 6 4 8 7 10 8 10 13 11 12 12 14 13 9 7 6 7 6 5 4 5 3 6 8
6 5 14 21 24 25 19 10 5 14 12 21 30 30 30 29 28 25 19 15 15 14 12 12 8 5 4 5 6 8 13 13 13 16 16 13 14 12 9 5 7 11 8 6 5 6 6 7 9
8 14 8 19 26 19 10 2 1 4 24 27 30 34 32 32 30 26 25 20 18 15 15 14 11 7 5 6 8 9 12 15 17 20 20 19 18 14 12 7 9 10 11 9 8 9 10 7 10
9 5 8 7 13 6 7 6 8 12 31 31 31 32 33 32 30 29 21 23 17 17 16 16 11 9 6 8 10 12 15 18 19 18 20 19 18 17 16 12 13 11 10 12 12 13 14 16 16
6 4 4 3 7 7 9 10 8 22 31 29 31 32 37 35 33 28 24 19 18 17 18 16 12 11 9 8 10 11 15 14 13 13 16 21 18 16 13 13 11 9 9 12 13 13 15 18 19
5 3 3 1 13 6 5 7 6 27 29 24 29 35 37 35 34 30 28 20 14 16 18 18 14 12 9 9 8 10 11 9 4 1 4 12 13 15 14 10 8 10 14 14 14 14 14 8 5
5 5 3 6 9 11 12 11 7 25 27 26 31 38 36 36 38 31 30 23 15 16 18 18 14 13 12 11 8 5 6 7 6 6 4 6 12 16 15 13 13 12 11 11 10 10 9 6 10
3 4 8 6 6 6 11 9 10 27 22 22 32 35 38 37 35 34 30 26 21 19 20 17 17 15 12 10 8 5 1 3 4 5 5 4 7 15 17 17 13 12 10 10 10 9 7 10 14
6 7 12 8 6 7 13 8 6 15 30 39 37 37 37 34 35 33 31 30 26 23 20 17 17 15 9 9 8 6 4 3 3 4 4 4 5 6 8 9 10 11 9 7 8 8 10 8 5
5 7 9 10 5 3 2 7 2 5 6 25 24 29 33 38 33 34 32 32 29 26 20 18 12 10 10 10 9 8 6 7 5 4 5 6 6 6 7 6 6 8 8 9 10 12 13 10 9
4 11 16 9 3 5 4 5 6 3 1 7 18 19 32 36 25 31 32 34 32 27 23 20 14 16 11 10 10 8 8 10 7 5 6 6 6 7 5 4 5 7 9 11 12 13 13 14 13
11 7 15 10 3 5 3 3 8 3 5 10 14 22 25 29 29 32 35 37 34 29 30 29 18 11 11 11 9 9 9 11 9 7 7 6 4 4 3 2 5 8 9 10 10 11 11 11 10
3 4 8 6 5 1 7 5 6 4 8 5 12 25 23 27 32 31 33 36 34 30 33 21 3 1 11 9 8 10 10 11 10 9 8 7 4 5 4 5 9 8 6 6 7 9 8 8 8
5 6 2 2 2 6 4 3 9 7 8 9 13 21 30 28 34 30 32 36 33 29 25 12 5 11 12 11 9 11 12 11 9 9 8 9 8 8 4 6 6 5 4 3 5 6 8 8 8
2 7 6 5 3 5 4 4 5 3 12 14 19 9 8 15 14 12 4 13 31 27 17 16 15 12 12 13 10 10 9 6 7 8 8 6 7 6 4 3 6 1 2 2 1 1 2 2 3
2 2 5 7 3 2 3 6 6 6 11 12 20 25 25 25 20 16 16 24 22 24 18 18 15 12 8 10 6 5 7 9 7 10 8 5 5 2 2 1 2 2 4 4 1 1 1 2 3
6 6 2 3 4 4 5 4 5 4 4 4 10 20 20 20 19 14 13 27 19 28 22 17 13 10 5 6 5 5 5 6 4 13 10 6 5 5 4 4 2 3 3 2 1 0 1 1 2
2 2 6 6 4 6 1 6 6 6 4 4 7 21 23 22 10 11 28 24 22 25 20 14 14 10 9 7 7 6 4 8 14 11 9 8 9 9 7 6 3 4 3 2 2 3 1 1 2
2 5 6 5 5 1 4 6 4 7 9 8 10 17 16 18 15 9 7 17 21 20 16 17 14 12 11 9 9 9 8 10 8 7 5 7 7 8 9 6 5 7 7 6 5 4 3 3 4
Wind_Direction
157 167 178 197 34 30 7 1 21 70 10 9 115 76 91 35 99 184 144 153 161 161 162 162 159 151 152 154 152 153 149 148 141 134 134 130 128 132 138 134 132 128 126 126 128 129 132 130 134
156 153 157 115 45 65 333 291 86 54 125 116 87 84 56 41 97 137 149 161 165 163 163 160 162 159 158 157 157 157 154 154 146 141 140 136 129 128 134 137 132 126 125 128 134 135 138 134 136
153 146 143 141 93 135 141 302 123 119 124 104 102 71 73 104 121 141 155 156 166 165 162 163 165 166 164 163 161 162 159 156 154 148 146 143 144 133 124 113 116 123 128 132 120 136 142 137 136
156 223 239 88 341 359 146 173 155 136 92 99 97 57 73 117 110 151 149 153 163 164 167 167 169 171 171 167 168 170 168 159 163 160 156 149 151 153 154 144 139 124 128 138 122 128 142 146 145
185 243 27 48 347 69 116 139 138 134 80 115 115 102 97 152 128 134 145 154 160 165 171 174 174 175 175 172 173 176 176 172 168 170 167 165 165 162 166 150 146 148 144 130 138 131 143 152 156
266 256 41 21 1 98 125 149 128 102 115 107 105 102 93 170 140 146 149 155 166 170 174 178 178 179 179 178 176 179 181 182 181 175 177 174 171 167 167 150 151 155 155 151 142 143 147 161 172
251 77 53 60 71 95 154 141 128 131 134 127 133 101 150 165 155 155 149 160 168 177 177 179 183 184 185 186 182 181 185 190 191 186 187 185 169 163 161 164 144 155 158 156 156 150 156 166 177
274 82 59 48 70 45 104 117 149 135 156 144 144 157 170 174 169 163 167 164 173 179 180 182 190 195 191 191 192 190 193 196 200 198 192 188 189 168 164 164 158 162 161 160 171 162 162 168 180
248 48 344 90 72 236 139 132 173 210 150 170 202 171 165 176 176 170 172 176 175 174 185 189 192 200 199 193 195 198 201 203 203 201 197 186 189 186 173 169 165 156 156 164 170 175 172 182 182
146 101 169 202 167 224 170 138 159 140 173 62 133 151 167 181 179 178 181 178 178 180 178 183 187 201 207 202 200 203 206 206 202 198 194 190 188 182 181 174 159 174 173 174 175 184 178 196 195
189 182 203 162 158 204 176 127 145 140 202 178 157 162 174 180 183 187 187 185 181 186 190 182 174 191 222 210 202 213 221 213 205 202 197 194 191 193 207 213 215 200 212 199 189 193 191 205 205
190 221 184 204 186 191 200 156 188 176 191 177 172 170 177 184 190 194 196 200 197 206 202 200 194 204 220 198 217 239 238 222 211 208 206 212 198 201 186 214 201 209 223 205 185 187 227 252 234
206 203 205 208 205 206 199 200 211 227 190 168 168 172 180 192 201 208 211 212 206 215 211 211 211 218 232 244 253 266 257 253 257 248 237 233 225 215 210 222 234 225 225 227 239 247 260 279 247
302 314 277 206 192 199 170 28 39 259 174 166 171 182 189 199 206 212 217 216 218 218 222 218 220 214 246 270 288 287 288 281 273 250 237 240 229 232 216 238 222 234 245 244 263 260 254 272 242
326 27 0 51 147 168 148 324 229 185 169 168 178 190 197 206 209 213 220 220 226 229 224 226 232 222 246 266 273 292 292 288 280 265 245 233 232 231 248 240 233 247 255 259 260 261 261 259 266
24 39 35 284 141 163 142 244 239 176 171 172 181 195 205 210 209 208 216 221 229 232 226 226 232 228 228 262 277 287 310 309 285 276 254 231 236 233 218 225 233 246 260 271 260 255 268 264 288
12 204 233 274 211 136 172 252 203 178 184 179 186 202 209 213 216 212 214 216 225 232 228 223 232 232 228 255 278 298 340 2 32 317 204 206 207 204 208 214 237 271 279 271 265 249 287 255 257
250 307 243 178 215 188 186 252 149 175 189 189 197 209 209 213 218 211 212 217 223 227 226 227 231 227 235 248 259 286 350 33 55 70 120 193 202 207 216 228 259 268 266 265 262 269 265 251 245
243 227 269 285 172 148 198 224 186 188 197 201 202 209 215 215 219 219 210 215 216 222 219 225 226 229 244 262 262 241 307 73 76 88 107 136 211 219 228 242 242 247 251 253 255 250 259 276 243
232 273 270 287 197 189 189 207 229 190 207 205 202 207 210 212 217 215 214 216 213 221 218 223 228 232 246 256 244 226 196 165 110 106 110 133 135 155 180 202 222 240 240 250 256 258 259 249 236
216 212 260 224 327 308 31 323 347 205 233 223 221 209 212 208 209 208 214 219 214 217 220 220 230 249 257 255 248 229 209 185 164 157 154 158 164 174 191 205 222 240 261 267 267 264 261 259 256
229 218 241 265 26 270 33 280 307 304 263 235 217 209 220 215 220 212 215 219 221 218 221 213 197 230 254 256 248 242 227 199 189 181 185 186 190 186 199 203 244 268 276 270 262 259 260 258 260
237 188 214 236 128 13 321 81 273 344 275 246 229 226 224 221 225 216 219 222 223 220 220 215 216 180 241 242 230 236 220 195 194 179 200 204 194 186 211 299 312 302 283 269 260 250 248 253 255
291 67 39 41 86 79 249 134 287 206 229 253 241 228 231 217 224 225 221 223 223 226 231 220 223 137 252 239 232 226 207 203 200 187 193 212 245 232 237 290 304 307 284 256 233 237 241 244 245
83 65 2 9 12 213 124 72 237 278 277 232 237 229 231 236 218 214 217 222 225 230 229 233 298 246 257 239 225 224 223 214 217 225 220 213 220 234 270 292 313 310 267 223 223 228 233 240 245
130 145 153 211 216 258 201 226 263 320 320 276 254 263 140 162 168 145 125 240 223 220 213 220 246 225 246 239 229 232 232 228 243 228 194 193 216 200 266 298 327 283 179 134 110 210 191 232 251
215 172 185 108 33 42 267 295 340 355 22 67 91 122 124 132 135 122 20 337 233 210 209 221 239 229 242 235 235 227 214 249 234 208 206 202 193 200 160 289 6 43 113 110 79 14 56 28 8
163 162 80 8 131 241 295 280 234 334 7 352 94 110 123 139 118 77 141 259 271 223 208 210 220 222 222 214 185 182 215 312 154 176 166 172 158 146 142 122 72 59 132 135 116 301 300 351 350
16 227 56 113 134 163 203 271 180 235 254 222 176 138 133 109 40 147 183 214 258 238 198 195 198 200 179 169 172 177 180 120 113 145 160 167 149 152 144 147 100 98 137 154 243 262 266 94 83
170 199 140 132 248 108 147 263 110 238 264 216 194 178 125 108 91 159 193 264 230 234 199 197 201 190 168 155 172 192 196 162 146 161 149 149 161 149 147 135 127 105 98 84 74 76 140 118 104